Follow iAlert.com on twitter @ialertcom
Search For Active Alerts in Your Area  
  Hi Guest:  [ Sign-up / Services ] [ Login ]

Current weather by "City, St" or "zip code"  
 

Advertise Here

Current Conditions: Wexford County Airport, MI

Unknown Precip


23.0 F

Last Updated on Jan 23 2018, 11:55 am EST
Humidity: 85%
Wind Speed: NW 17.3 G 25.3 mph
Barometer 29.58 in
Dewpoint: 19.2 F
Visibility: 7.00 mi
Precip: --
Heat Index: NA
Wind Chill: 9 F
Current conditions at:

Wexford County Airport, MI (KCAD)

Lat: 44.27 Lon: 85.42

Local Radar Image active severe weather and emergency alerts image image weather storm and storm spotter reports image weather observation monitoring service image
Local
Radar
Active
Alerts
Storm Reports Obs
Monitoring

iAlert Weather and Emergency Alert Notification Services:


ialert severe weather and emergency alerts by text message and email ialert daily weather forecast by email and text message service ialert real-time weather-observation monitoring and alert notification service ialert storm report monitoring alert notification

Observation History for Wexford County Airport, MI


Time Wind
(mph)
Vis
(mi)
Weather Precip (in) Temperature (F) Relative
Humidity
Wind
Chill
(°F)
Heat
Index
(°F)
Pressure
Air Dwpt altimeter
(in)
sea level
(mb)
11:55 am EST NW 17.3 G 25.3 7.00 Unknown Precip -- 23.0 19.2 85% 9 NA 29.58 M
10:55 am EST N 9.2 G 17.3 1.25 Light Snow -- 24.0 21.9 92% 14 NA 29.56 M
9:55 am EST N 13.8 G 21.9 3.00 Light Snow -- 25.0 22.3 91% 13 NA 29.51 M
8:55 am EST NW 11.5 G 20.7 1.25 Light Snow -- 27.0 26.2 96% 17 NA 29.47 M
7:55 am EST N 8.1 1.75 Light Snow -- 30.0 29.3 99% 22 NA 29.44 M
6:55 am EST N 9.2 3.00 Light Snow -- 32.0 31.8 99% 24 NA 29.41 M
5:55 am EST N 5.8 7.00 Light Rain -- 35.0 34.2 99% 30 NA 29.39 M
4:55 am EST N 0.0 4.00 Drizzle -- 35.0 34.3 99% NA NA 29.38 M
3:55 am EST E 5.8 1.75 Light Rain -- 35.0 34.7 99% 30 NA 29.39 M
2:55 am EST N 3.5 0.50 Fog -- 36.0 35.2 99% NA NA 29.39 M
2:35 am EST NE 5.8 0.50 Fog -- 35.0 34.7 99% 30 NA 29.39 M
1:55 am EST E 6.9 0.75 Fog/Mist -- 35.0 34.2 98% 29 NA 29.39 M
12:55 am EST N 0.0 0.25 Light Snow -- 35.0 34.2 98% NA NA 29.40 M
11:55 pm EST E 3.5 0.50 Fog -- 35.0 34.2 98% NA NA 29.42 M
10:55 pm EST E 4.6 0.50 Fog -- 35.0 34.7 99% 31 NA 29.45 M
9:55 pm EST NE 3.5 0.50 Fog -- 35.0 34.2 98% NA NA 29.47 M
8:55 pm EST E 4.6 2.50 Fog/Mist -- 35.0 34.5 99% 31 NA 29.50 M
7:55 pm EST E 6.9 2.50 Fog/Mist -- 35.0 34.0 98% 29 NA 29.51 M
6:55 pm EST E 5.8 10.00 Overcast -- 35.0 34.7 99% 30 NA 29.53 M
5:55 pm EST E 6.9 2.00 Light Snow -- 34.0 34.0 99% 28 NA 29.54 M
4:55 pm EST E 9.2 1.25 Light Rain -- 34.0 33.8 99% 27 NA 29.54 M
3:55 pm EST E 11.5 1.75 Light Rain -- 34.0 33.8 99% 26 NA 29.55 M
2:55 pm EST E 12.7 2.00 Light Rain -- 34.0 33.8 99% 25 NA 29.57 M
1:55 pm EST E 10.4 1.50 Light Rain -- 34.0 33.8 99% 26 NA 29.62 M

Regional Weather Observation


Cherry Capital Airport, MI (KTVC)

Light Snow
24.0 F

Bellaire, Antrim County Airport, MI (KACB)

Fog/Mist
22.0 F

Frankfort, Frankfort Dow Memorial Field Airport, MI (KFKS)

Fog/Mist
27.0 F

Manistee County - Blacker Airport, MI (KMBL)

Light Snow Fog/Mist
27.0 F

Grayling, Grayling Army Airfield, MI (KGOV)

Fog/Mist
23.0 F

Houghton Lake, Roscommon County Airport, MI (KHTL)

Fog/Mist
25.0 F

Advertise Here